Other Public Products
Issued by NWS Grand Forks, ND

Home | Current Version | Previous Version | Graphics & Text | Print | Product List | Glossary On
Versions: 1 2 3 4 5 6 7 8 9 10 11 12 13 14 15 16 17 18 19 20 21 22 23 24 25 26 27 28 29 30 31 32 33 34 35 36 37 38 39 40 41 42 43 44 45 46 47 48 49 50
000
FPUS83 KFGF 260810
OPUFGF
PRAIRIE TO PINES WEATHER ROUNDUP
NATIONAL WEATHER SERVICE EASTERN NORTH DAKOTA/GRAND FORKS ND
300 AM CDT WED APR 26 2017

 **SATELLITE DATA USED TO AUGMENT SKY COVER AT AUTOMATED STATIONS**
 *****  WEATHER ACROSS EASTERN NORTH DAKOTA  *****

CITY           SKY/WX    TMP DP  RH WIND       PRES   REMARKS
GRAND FORKS    CLOUDY    33  27  78 NE20      29.85F WCI  21
GRAND FORKS AF CLOUDY    31  25  79 NE18G25   29.85F WCI  19
GRAND CITY NWS NOT AVBL
BUXTON         NOT AVBL
DEVILS LAKE    FAIR      30  24  78 NE16      29.88F WCI  19
FARGO          FRZ RAIN  32  29  88 N20G28    29.76F WCI  20
WAHPETON ARPT  CLOUDY    32  30  93 N15G22    29.71F WCI  22
$$

 *****  WEATHER ACROSS CENTRAL AND WESTERN NORTH DAKOTA  *****

CITY           SKY/WX    TMP DP  RH WIND       PRES   REMARKS
JAMESTOWN      CLOUDY    30  26  85 N17       29.82S WCI  18
BISMARCK       FAIR      34  25  69 N9        29.89F
MINOT          FAIR      29  22  75 N12       29.94F WCI  19
MINOT AFB      FAIR      28  20  71 N10       29.95F WCI  19
GARRISON         N/A     30  24  78 N7        29.92F WCI  23
WILLISTON      FAIR      30  22  72 NE7       29.98S WCI  23
DICKINSON      CLOUDY    31  24  75 NE7       29.89F WCI  24
HETTINGER      CLOUDY    30  26  85 N6        29.90F WCI  24
$$

 *****  OTHER OBSERVATIONS NORTHEAST NORTH DAKOTA  *****

CITY           SKY/WX    TMP DP  RH WIND       PRES   REMARKS
WALHALLA       NOT AVBL
LANGDON        FAIR      28  25  86 NE17      29.89F WCI  16
CAVALIER       CLOUDY    30  23  74 N13G20    29.92F WCI  20
GRAFTON        CLOUDY    30  27  86 N17       29.91S WCI  18
CANDO          NOT AVBL
FORT TOTTEN      N/A     30  25  81 NE8       29.95S WCI  22
ROLLA          FAIR      27  21  80 N17       29.92F WCI  14
RUGBY          NOT AVBL
 ***** THE ABOVE OBSERVATIONS ARE NON NWS ARE NOT QUALITY
        CONTROLLED AND MAY MIS-REPORT RAIN FOR SNOW...
$$

 *****  OTHER OBSERVATIONS SOUTHEAST NORTH DAKOTA *****

CITY           SKY/WX    TMP DP  RH WIND       PRES   REMARKS
COOPERSTOWN    CLOUDY    30  27  86 NE20G29   29.83S WCI  18
VALLEY CITY    LGT RAIN  28  28 100 NE18G26   29.82S WCI  16
OAKES          NOT AVBL
GWINNER        CLOUDY    30  30 100 MISG      29.76F FOG
BUFFALO        NOT AVBL
WYNDMERE         N/A     32  30  93 N17         N/A  WCI  21
 ***** THE ABOVE OBSERVATIONS ARE NON NWS ARE NOT QUALITY
       CONTROLLED AND MAY MIS-REPORT RAIN FOR SNOW...
$$

  *****  WEATHER ACROSS NORTHERN MINNESOTA  *****

CITY           SKY/WX    TMP DP  RH WIND       PRES   REMARKS
FLAG ISLAND    CLOUDY    27  21  80 NE18G24   29.91F WCI  13
WARROAD        CLOUDY    28  25  86 NE20G29   29.89F WCI  15
ROSEAU         CLOUDY    28  25  86 NE20G26   29.88F WCI  15
HALLOCK        CLOUDY    30  25  80 NE16G22   29.89F WCI  19
THF RVR FALLS  CLOUDY    29  23  78 NE22G28   29.82F WCI  15
HALSTAD          N/A     30  27  87 NE22        N/A  WCI  17
FOSSTON        MIX PCPN  27  25  93 NE13G22   29.77F WCI  16
BAUDETTE       CLOUDY    27  20  75 NE18G25   29.86F WCI  14
WASKISH        CLOUDY    27  25  93 NE17G24   29.81F WCI  14
CROOKSTON      CLOUDY    30  27  86 NE17      29.83F WCI  18
$$
  *****  WEATHER ACROSS CENTRAL AND WEST MINNESOTA  *****

CITY           SKY/WX    TMP DP  RH WIND       PRES   REMARKS
BEMIDJI        LGT SNOW  27  25  94 N10       29.75F WCI  17
PARK RAPIDS    FRZ RAIN  31  26  82 NE13G18   29.68F WCI  21
WADENA         LGT RAIN  30  28  93 N9        29.66S WCI  22
DETROIT LAKES  MIX PCPN  32  30  93 NE8       29.71F WCI  25
MOORHEAD       LGT RAIN  30  28  93 N10       29.76F WCI  21
FERGUS FALLS   LGT RAIN  34  32  93 NE7       29.69F
ELBOW LAKE     LGT RAIN  33  32  96 NE13G21   29.67S WCI  24
MORRIS MN      MIX PCPN  34  34 100 N20       29.64S WCI  22
STAPLES        MIX PCPN  30  30 100 CALM      29.65F
WHEATON        MIX PCPN  34  30  86 N16       29.71F WCI  23
$$
  *****  WEATHER ELSEWHERE ACROSS MINNESOTA  *****

CITY           SKY/WX    TMP DP  RH WIND       PRES   REMARKS
DULUTH         LGT RAIN  33  31  92 E17G25    29.66F WCI  22
INTRNTL FALLS  FLURRIES  25  20  81 NE10G26   29.85F WCI  15
ELY            LGT SNOW  25  21  86 NE12G21   29.75F WCI  14
CLOQUET        MIX PCPN  34  30  86 E16G29    29.65F WCI  23
BRAINERD       FRZ RAIN  32  30  92 NE14G25   29.64F WCI  22
HIBBING        FRZ RAIN  27  25  92 NE16G28   29.71F WCI  15
ALEXANDRIA     MIX PCPN  33  32  96 N16       29.63F WCI  23
SAINT CLOUD    LGT RAIN  38  37  97 N12       29.57F
MINNEAPOLIS    LGT RAIN  44  41  89 N13       29.49F
$$

  *****  WEATHER ACROSS SOUTH DAKOTA  *****

CITY           SKY/WX    TMP DP  RH WIND       PRES   REMARKS
SIOUX FALLS    CLOUDY    36  36 100 NW18      29.62F
BROOKINGS      MIX PCPN  33  32  96 NW18G24   29.64R WCI  22
WATERTOWN      FRZ RAIN  31  30  96 N21       29.67R FOG     WCI  18
HURON          CLOUDY    32  31  96 N17       29.74F WCI  21
SISSETON         N/A     32  31  96 N18       29.70F WCI  20
ABERDEEN       LGT SNOW  31  27  85 N17       29.78S FOG     WCI  19
MITCHELL       CLOUDY    33  31  92 NW22G29   29.74F WCI  21
PIERRE         CLOUDY    32  28  85 N13       29.81F WCI  22
MOBRIDGE       CLOUDY    35  25  66 N15G24    29.80F
RAPID CITY     CLOUDY    27  24  89 NW17      29.87F WCI  14
$$

  *****  SOME WEATHER IN NEARBY STATES *****

CITY           SKY/WX    TMP DP  RH WIND       PRES   REMARKS
GLASGOW MT     CLOUDY    36  25  64 E14       29.93F
GREAT FALLS MT CLOUDY    37  36  96 CALM      29.80F
CHEYENNE WY    FAIR      27  23  85 N8        29.81F WCI  19
SCOTTSBLUFF NE CLOUDY    33  26  75 NW12      29.84F WCI  24
OMAHA NE       CLOUDY    40  35  83 NW20G26   29.58F
DES MOINES IA  LGT RAIN  47  44  90 NW15      29.45F
DAVENPORT IA   MOCLDY    61  56  83 S6        29.42F
CHICAGO IL     CLOUDY    67  54  63 S14       29.49F
EAU CLAIRE WI  LGT RAIN  46  45  96 NE12      29.45F
LA CROSSE WI   CLOUDY    57  56  96 CALM      29.40F
$$

  *****  SOME NATIONAL WEATHER *****

CITY           SKY/WX    TMP DP  RH WIND       PRES   REMARKS
LA GUARDIA NY  DRZL/FOG  53  51  93 NE16      29.76F VSB 1
RALEIGH NC     CLOUDY    59  56  89 NW3       29.76R
ATLANTA GA     FAIR      61  56  83 SW3       29.76F
NEW ORLEANS LA FAIR      67  61  81 SE6       29.70F
OKLAHOMA CITY  MOCLDY    53  50  89 N21       29.52R
ALBUQUERQUE NM FAIR      45  30  55 NW3       29.83R
SALT LAKE CITY MOCLDY    44  36  73 SE8       29.93S
LOS ANGELES CA MOCLDY    64  49  57 SE8       29.89S
BOISE ID       CLOUDY    47  39  74 E9        29.89F
SEATTLE WA     CLOUDY    50  49  96 S14       29.78S
$$

*** WEATHER ACROSS MANITOBA...SASKATCHEWAN AND ONTARIO ***
                ***ONTARIO***

CITY           SKY/WX    TMP DP  RH WIND       PRES   REMARKS
GERALDTON      LGTSLEET  16  10  79 NE15G24   29.99F WCI   1
THUNDER BAY    FRZ RAIN  27  25  93 N7        29.85F WCI  19
SIOUX LOOKOUT  FLURRIES  19  14  79 NE7       29.99F WCI  10
TORONTO        MOCLDY    48  46  93 E7        29.80F
BIG TROUT LK   CLEAR      7   3  85 E6        30.29S WCI  -3
PICKLE LAKE    NOT AVBL
DRYDEN         CLOUDY    21  18  86 NE25G33   29.93F WCI   4
KENORA         CLOUDY    23  18  80 NE17G29   29.93F WCI   9
$$
                *** MANITOBA***

CITY           SKY/WX    TMP DP  RH WIND       PRES   REMARKS
BRANDON        MOCLDY    28  16  59 NE16      30.00F WCI  17
DAUPHIN        CLEAR     18  14  86 W5        30.09F WCI  11
ISLAND LAKE    CLEAR     16   5  62 E9        30.23F WCI   4
PILOT MOUND      N/A     28  23  80 N10         N/A  WCI  19
THE PAS        CLEAR     21   7  53 E6        30.18F WCI  14
THOMPSON       CLEAR      3  -6  66 VRB2      30.28F
WINNIPEG       MOCLDY    30  21  69 NE15      29.98F WCI  19
LYNN LAKE      CLEAR     16   0  48 S6        30.19S WCI   7
CHURCHILL      CLEAR      1  -6  71 S14       30.29F WCI -17
GILLAM         CLEAR      0  -6  78 SE5       30.34S WCI -10
$$
                ***SASKATCHEWAN***

CITY           SKY/WX    TMP DP  RH WIND       PRES   REMARKS
ESTEVAN        PTCLDY    23  19  86 NE6       30.00F WCI  16
KINDERSLEY     FRZ DRZL  30  28  93 SE21      29.88F WCI  17
LLOYDMINSTER   FLURRIES  28  28 100 E10       29.95F WCI  19
PRINCE ALBERT  CLOUDY    28  16  59 E8        30.06F WCI  20
REGINA         MOCLDY    30  19  64 E16       30.02R WCI  19
YORKTON        CLEAR     23  18  80 NE3       30.07S
N. BATTLEFORD  LGT SNOW  30  30 100 E9        30.01F WC



USA.gov is the U.S. government's official web portal to all federal, state and local government web resources and services.